User: anonymous   Login
Location: Estes Par
(40.3770°N, 105.5210°W)
Time: 04:16:01
(UTC-06:00)
Language:

Tiangong 1 - Orbit

View from above orbital plane
View from above orbital plane
View from above satellite
View from above satellite

Ground track
Ground track

The orbit data is extracted from the following two-line orbital elements,

1 37820U 11053A   17295.05241806  .00041960  87755-5  15072-3 0  9995
2 37820  42.7550 138.6235 0020512 266.9723 230.1662 15.88616898348070
Epoch (UTC): 22 October 2017 01:15:28
Eccentricity: 0.0020512
inclination: 42.7550°
perigee height: 292 km
apogee height: 320 km
right ascension of ascending node: 138.6235°
argument of perigee: 266.9723°
revolutions per day: 15.88616898
mean anomaly at epoch: 230.1662°
orbit number at epoch: 34807

The dashed part of the orbit path shows where the satellite is in the earth's shadow,  

DLR